This demonstration page uses our WeatherBlox Daily Observations layout. Learn more.

Left ArrowRight Arrow

39.29038, -76.61219

Hourly Observations for December 11, 2020

Temp ( °F °C ) Dew Point ( °F °C ) Humidity (%) Winds ( mph kmh ) Pressure ( in mb ) Visibility ( mi km ) Precip ( " mm )
12:54 am 00:54 Mostly Clear with Patchy Fog 33 0.6 29 -1.7 85 85 Calm 30.20 1023 5 8 0.00 0.00
1:54 am 01:54 Mostly Clear with Patchy Fog 32 0 29 -1.7 88 88 Calm 30.20 1023 5 8 0.00 0.00
2:54 am 02:54 Clear with Patchy Fog 30 -1.1 27 -2.8 88 88 Calm 30.20 1023 5 8 0.00 0.00
3:54 am 03:54 Clear with Mist and Fog 31 -0.6 28 -2.2 89 89 Calm 30.19 1022 5 8 0.00 0.00
4:54 am 04:54 Clear with Mist and Fog 31 -0.6 27 -2.8 85 85 Calm 30.18 1022 5 8 0.00 0.00
5:54 am 05:54 Clear with Mist and Fog 33 0.6 30 -1.1 89 89 Calm 30.18 1022 4 6 0.00 0.00
6:54 am 06:54 Mostly Clear with Fog 33 0.6 29 -1.7 85 85 Calm 30.19 1022 5 8 0.00 0.00
7:54 am 07:54 Partly Cloudy with Mist and Fog 32 0 29 -1.7 88 88 Calm 30.19 1022 4 6 0.00 0.00
8:54 am 08:54 Partly Cloudy with Mist and Fog 41 5 37 2.8 86 86 Calm 30.21 1023 4 6 0.00 0.00
9:54 am 09:54 Hazy 45 7.2 38 3.3 77 77 Calm 30.21 1023 6 10 0.00 0.00
10:54 am 10:54 Mostly Sunny 49 9.4 39 3.9 69 69 VRB 5 7 30.19 1023 8 13 0.00 0.00
11:54 am 11:54 Mostly Sunny 54 12.2 40 4.4 59 59 SSW 6 9 30.15 1021 9 14 0.00 0.00
12:54 pm 12:54 Mostly Sunny 59 15 41 5 51 51 W 3 6 30.12 1020 10 16 0.00 0.00
1:54 pm 13:54 Partly Cloudy 61 16.1 39 3.9 44 44 S 7 11 30.10 1019 10 16 0.00 0.00
2:54 pm 14:54 Partly Cloudy 62 16.7 39 3.9 43 43 VRB 7 11 30.09 1019 10 16 0.00 0.00
3:54 pm 15:54 Mostly Cloudy 61 16.1 38 3.3 43 43 S 3 6 30.10 1019 10 16 0.00 0.00
4:54 pm 16:54 Partly Cloudy 56 13.3 39 3.9 53 53 ESE 7 11 30.10 1019 10 16 0.00 0.00
5:54 pm 17:54 Mostly Clear 50 10 40 4.4 68 68 VRB 5 7 30.11 1020 10 16 0.00 0.00
6:54 pm 18:54 Mostly Clear 50 10 41 5 71 71 Calm 30.13 1020 10 16 0.00 0.00
7:54 pm 19:54 Mostly Clear 45 7.2 40 4.4 83 83 Calm 30.14 1021 10 16 0.00 0.00
8:54 pm 20:54 Mostly Clear 42 5.6 38 3.3 85 85 Calm 30.13 1020 10 16 0.00 0.00
9:54 pm 21:54 Mostly Clear 41 5 37 2.8 86 86 Calm 30.12 1020 10 16 0.00 0.00
10:54 pm 22:54 Clear 40 4.4 37 2.8 89 89 Calm 30.11 1020 10 16 0.00 0.00
11:54 pm 23:54 Clear 39 3.9 36 2.2 89 89 Calm 30.11 1020 8 13 0.00 0.00

Powered by AerisWeather